Date,TemperatureHighF,TemperatureAvgF,TemperatureLowF,DewpointHighF,DewpointAvgF,DewpointLowF,HumidityHigh,HumidityAvg,HumidityLow,PressureMaxIn,PressureMinIn,WindSpeedMaxMPH,WindSpeedAvgMPH,GustSpeedMaxMPH,PrecipitationSumIn
2013-1-1,47.0,43.1,37.7,45.0,38.1,23.0,98,84,52,30.11,29.93,11,4,0,0.53
2013-1-2,44.6,40.1,36.1,44.0,37.6,35.0,98,91,79,30.16,29.91,16,6,0,0.03
2013-1-3,38.1,34.4,28.5,38.0,32.3,21.0,98,91,73,30.30,30.08,22,6,0,0.01
2013-1-4,47.3,32.9,25.7,27.0,21.3,18.0,79,64,41,30.39,30.25,28,11,0,0.00
2013-1-5,43.6,35.4,27.0,27.0,19.1,10.0,74,53,30,30.40,30.23,26,8,0,0.01
2013-1-6,50.4,40.4,33.5,40.0,33.3,26.0,87,76,63,30.23,30.03,33,6,0,0.00
2013-1-7,45.0,36.7,28.8,28.0,25.9,23.0,85,66,48,30.43,30.18,21,8,0,0.00
2013-1-8,46.5,39.8,33.9,43.0,33.5,27.0,95,78,64,30.46,30.36,12,4,0,0.00
2013-1-9,55.3,51.0,43.6,52.0,49.2,43.0,98,93,84,30.45,30.36,11,4,0,0.00
2013-1-10,59.6,55.0,48.1,52.0,49.5,47.0,96,82,72,30.45,30.31,23,7,0,0.02
2013-1-11,55.6,51.0,47.6,55.0,50.7,47.0,99,98,96,30.30,30.13,20,8,0,0.67
2013-1-12,62.7,57.9,55.1,63.0,57.3,55.0,100,98,89,30.15,30.04,15,6,0,0.02
2013-1-13,56.9,56.0,54.2,57.0,55.6,54.0,99,98,95,30.10,30.02,26,8,0,0.01
2013-1-14,58.8,56.6,48.8,59.0,56.5,49.0,100,100,99,30.10,30.01,22,10,0,1.14
2013-1-15,55.3,51.1,46.0,55.0,51.1,46.0,100,100,99,30.11,30.00,15,6,0,1.01
2013-1-19,47.2,41.4,37.1,29.0,26.2,24.0,61,55,48,30.36,30.17,15,6,0,0.00
2013-1-20,57.7,46.7,38.7,35.0,26.0,15.0,59,45,31,30.17,30.01,21,6,0,0.00
2013-1-21,57.1,44.2,31.0,30.0,23.4,14.0,56,45,34,30.07,29.92,14,4,0,0.00
2013-1-22,36.4,26.5,18.1,15.0,7.2,1.0,63,46,29,30.29,29.98,26,9,0,0.00
2013-1-23,42.8,31.0,20.3,26.0,15.2,1.0,72,53,41,30.36,30.09,14,6,0,0.00
2013-1-24,38.8,32.6,19.2,29.0,16.8,3.0,81,54,34,30.48,29.99,21,10,0,0.00
2013-1-25,36.9,21.4,16.2,36.0,14.6,2.0,97,77,49,30.49,30.15,14,6,0,0.08
2013-1-26,47.8,36.1,28.9,35.0,27.6,23.0,97,73,52,30.34,30.14,22,9,0,0.00
2013-1-27,38.1,31.4,24.3,28.0,26.1,22.0,92,81,59,30.55,30.33,10,5,0,0.00
2013-1-28,42.1,36.5,32.6,41.0,33.0,27.0,97,87,78,30.48,30.35,14,6,0,0.00
2013-2-1,32.8,27.5,19.8,26.0,13.2,6.0,79,56,41,30.39,29.96,22,8,0,0.00
2013-2-2,34.2,26.7,19.7,28.0,15.0,3.0,96,64,38,30.41,30.06,17,7,0,0.00
2013-2-3,28.6,27.4,26.7,28.0,26.6,26.0,96,96,96,30.06,30.01,7,4,0,0.00
2013-2-5,53.5,47.7,46.0,32.0,31.0,29.0,59,53,41,29.99,29.92,13,5,0,0.00
2013-2-6,56.6,48.0,36.4,34.0,29.3,22.0,77,51,35,30.18,29.95,16,6,0,0.00
2013-2-7,45.3,38.2,34.7,37.0,29.1,21.0,98,73,41,30.23,30.00,17,10,0,0.61
2013-2-8,47.8,39.4,29.8,47.0,35.9,26.0,99,89,54,30.13,29.91,19,8,0,0.00
2013-2-9,59.7,40.7,27.5,26.0,20.7,13.0,85,50,16,30.33,30.09,28,9,0,0.00
2013-2-10,45.0,40.9,36.8,43.0,26.8,17.0,97,60,37,30.41,30.17,21,9,0,0.37
2013-2-11,49.1,46.0,42.1,49.0,45.7,42.0,99,98,98,30.17,30.04,16,8,0,0.23
2013-3-22,37.0,36.8,36.6,23.0,22.1,22.0,58,57,56,30.06,30.05,4,3,0,0.00
2013-3-23,47.6,41.3,37.0,42.0,35.9,23.0,95,81,58,30.03,29.88,12,4,0,0.03
2013-3-24,41.8,37.0,33.7,41.0,36.2,33.0,98,97,89,29.91,29.55,26,9,0,1.16
2013-3-25,40.2,31.6,26.2,34.0,23.7,18.0,98,74,51,29.94,29.56,17,6,0,0.01
2013-3-26,41.1,30.3,23.9,24.0,20.6,17.0,84,68,49,30.21,29.92,22,8,0,0.00
2013-3-27,49.2,34.2,24.8,27.0,22.2,17.0,83,63,41,30.30,30.19,23,8,0,0.00
2013-3-28,56.9,39.5,27.9,24.0,20.3,17.0,72,50,24,30.33,30.19,25,9,0,0.00
2013-3-29,40.4,37.1,35.5,20.0,18.9,17.0,51,48,43,30.34,30.25,11,5,0,0.00
2013-3-31,59.0,51.8,46.8,57.0,50.7,46.0,99,96,81,29.90,29.83,17,5,0,0.41
2013-4-1,68.2,54.1,45.0,50.0,39.9,30.0,98,63,34,29.93,29.81,19,7,0,0.00
2013-4-2,59.0,46.1,34.9,32.0,27.4,21.0,73,50,33,30.12,29.91,24,9,0,0.00
2013-4-3,42.4,41.2,39.8,21.0,20.2,19.0,45,43,42,30.12,30.09,16,9,0,0.00
2013-4-28,48.7,48.4,48.1,49.0,48.1,48.0,99,99,98,30.05,30.03,11,6,0,2.36
2013-4-29,62.7,54.9,48.3,58.0,52.6,48.0,99,92,77,30.06,29.91,12,4,0,0.07
2013-4-30,64.0,58.4,53.4,57.0,54.8,52.0,97,88,74,30.12,29.93,15,6,0,0.01
2013-5-1,59.0,53.5,50.0,53.0,50.6,49.0,97,90,78,30.24,30.12,17,7,0,0.00
2013-5-2,54.5,51.1,49.4,54.0,50.5,49.0,99,98,95,30.26,30.18,21,11,0,0.02
2013-5-3,54.0,50.0,46.7,51.0,48.9,47.0,99,96,87,30.20,30.08,21,11,0,0.02
2013-5-4,47.2,45.6,43.0,46.0,44.7,42.0,98,96,94,30.04,29.92,35,19,0,0.52
2013-5-5,46.5,44.7,42.4,46.0,44.3,42.0,98,98,97,29.96,29.82,34,24,0,1.26
2013-5-6,56.4,49.9,44.5,51.0,46.9,41.0,99,90,70,29.91,29.77,28,8,0,0.03
2013-5-7,60.2,51.3,44.2,51.0,45.2,40.0,93,80,59,29.93,29.84,15,4,0,0.03
2013-5-8,66.8,57.3,49.7,56.0,50.4,45.0,89,78,61,30.01,29.88,16,3,0,0.00
2013-5-9,76.8,62.8,55.0,59.0,52.6,48.0,86,70,47,30.05,29.96,12,4,0,0.46
2013-5-10,70.9,65.1,61.5,59.0,55.9,51.0,84,72,62,30.02,29.91,16,5,0,0.00
2013-5-11,69.3,61.7,56.1,61.0,56.4,52.0,92,82,73,29.91,29.78,14,4,0,0.09
2013-5-12,67.7,55.0,46.8,53.0,42.1,29.0,94,65,39,30.01,29.80,24,9,0,0.01
2013-5-13,65.3,50.6,40.8,36.0,30.1,28.0,62,47,26,30.16,29.98,27,10,0,0.00
2013-5-14,65.1,56.0,45.9,50.0,38.7,29.0,76,53,41,30.23,30.05,14,4,0,0.00
2013-5-15,80.0,68.6,56.7,61.0,54.4,49.0,80,62,49,30.05,29.90,15,5,0,0.00
2013-5-16,75.2,68.1,62.5,62.0,55.1,48.0,78,64,51,29.98,29.89,11,3,0,0.00
2013-5-17,75.5,67.4,61.8,61.0,57.4,54.0,83,71,55,30.04,29.95,15,4,0,0.00
2013-5-18,65.0,60.9,58.8,62.0,59.1,55.0,99,94,71,30.08,29.97,16,4,0,1.30
2013-5-19,64.5,61.5,59.6,65.0,61.3,59.0,100,99,98,30.07,29.97,10,2,0,0.22
2013-5-20,72.4,65.0,58.7,67.0,62.6,59.0,99,92,80,30.06,29.98,12,3,0,0.01
2013-5-21,78.8,69.7,63.3,67.0,64.0,59.0,96,82,60,29.99,29.89,11,3,0,0.00
2013-5-22,73.4,65.2,58.5,67.0,62.6,58.0,98,91,80,29.94,29.82,15,4,0,0.88
2013-5-23,74.6,63.5,57.5,67.0,59.6,54.0,99,88,60,29.91,29.80,20,4,0,0.14
2013-5-24,65.0,57.9,50.7,54.0,44.9,37.0,89,64,41,30.17,29.84,22,11,0,0.00
2013-5-25,71.1,58.7,45.5,49.0,39.0,31.0,69,50,29,30.28,30.14,26,7,0,0.00
2013-5-26,68.5,60.2,51.7,52.0,44.0,33.0,75,56,39,30.26,30.11,15,5,0,0.02
2013-5-27,72.8,64.6,56.4,57.0,53.1,46.0,76,66,56,30.23,30.10,13,3,0,0.00
2013-5-28,74.2,66.6,59.2,62.0,58.3,54.0,90,75,61,30.17,30.09,13,4,0,0.00
2013-5-29,73.5,66.6,58.2,65.0,59.8,56.0,94,79,64,30.18,30.11,10,4,0,0.00
2013-5-30,72.4,66.7,59.8,63.0,59.9,58.0,96,79,68,30.22,30.12,12,5,0,0.00
2013-5-31,75.9,67.9,61.3,64.0,61.6,59.0,98,81,66,30.18,30.05,17,4,0,0.00
2013-6-1,73.7,67.2,61.3,65.0,62.5,61.0,99,85,70,30.07,29.99,13,4,0,0.06
2013-6-2,68.5,63.4,61.6,64.0,61.9,61.0,99,95,81,30.00,29.94,16,5,0,0.12
2013-6-3,75.0,68.5,61.1,69.0,64.3,59.0,100,87,77,29.91,29.80,15,3,0,0.07
2013-6-4,71.3,66.0,59.7,64.0,60.9,57.0,93,84,74,30.02,29.89,17,8,0,0.00
2013-6-5,70.9,64.9,61.1,66.0,62.9,60.0,99,93,81,30.05,29.92,17,7,0,0.33
2013-6-6,65.9,63.0,59.0,66.0,62.8,59.0,100,99,99,29.93,29.76,10,4,0,0.67
2013-6-7,76.3,64.4,60.7,71.0,63.3,59.0,100,96,81,29.79,29.63,19,6,0,0.61
2013-6-8,72.6,65.9,59.4,68.0,63.1,58.0,97,91,81,30.05,29.78,10,4,0,0.01
2013-6-9,73.3,66.4,63.2,68.0,64.2,62.0,99,93,82,30.09,29.98,21,7,0,0.79
2013-6-10,66.8,64.1,59.2,67.0,64.1,59.0,100,100,99,29.98,29.88,28,8,0,0.48
2013-6-11,83.0,70.2,61.0,70.0,63.7,61.0,100,82,50,29.97,29.90,11,4,0,0.02
2013-6-12,85.8,75.2,67.2,74.0,66.0,57.0,91,73,53,29.98,29.86,16,4,0,0.00
2013-6-20,71.7,66.6,66.4,64.0,56.3,-99.9,83,76,73,30.18,30.14,15,-29,0,0.00
2013-6-21,76.7,67.7,61.5,63.0,60.2,58.0,94,78,55,30.22,30.13,12,4,0,0.00
2013-6-22,80.3,68.8,59.9,62.0,59.0,56.0,88,72,47,30.19,30.08,11,4,0,0.00
2013-6-23,75.3,69.1,64.3,67.0,64.6,61.0,97,85,74,30.16,30.07,14,4,0,0.56
2013-6-24,79.6,70.6,64.1,71.0,67.5,64.0,99,90,75,30.18,30.05,10,3,0,0.03
2013-6-25,77.9,69.4,65.4,71.0,66.0,63.0,97,89,75,30.09,30.04,9,3,0,0.00
2013-7-2,68.7,63.7,65.7,68.0,57.8,-99.9,100,93,95,30.06,29.94,17,-44,0,0.00
2013-7-3,67.6,64.5,59.4,68.0,64.4,59.0,100,100,99,30.18,30.05,20,9,0,0.60
2013-7-4,68.4,64.0,59.8,68.0,64.1,60.0,100,100,100,30.21,30.11,19,7,0,1.82
2013-7-5,76.5,66.2,62.4,73.0,65.3,61.0,100,97,74,30.21,30.12,23,5,0,0.86
2013-7-6,71.3,65.3,62.1,68.0,64.8,62.0,100,98,86,30.18,30.09,25,9,0,0.59
2013-7-7,73.0,67.1,63.8,73.0,66.6,64.0,100,98,90,30.13,30.05,17,4,0,1.74
2013-7-8,81.8,70.1,65.1,71.0,66.6,63.0,99,89,66,30.13,30.07,9,3,0,0.34
2013-7-9,79.8,70.9,64.4,72.0,67.1,63.0,98,88,70,30.13,30.02,14,4,0,0.01
2013-7-10,73.3,67.4,64.5,71.0,66.7,64.0,99,97,89,30.08,29.94,10,3,0,0.48
2013-7-11,74.0,68.2,64.4,70.0,66.4,64.0,98,94,84,29.94,29.83,7,2,0,0.25
2013-7-12,81.3,67.7,60.4,70.0,64.6,57.0,98,90,66,29.95,29.83,14,4,0,0.07
2013-7-13,66.8,62.3,57.5,64.0,61.3,57.0,99,96,89,30.10,29.95,16,7,0,0.03
2013-7-14,68.4,65.1,62.2,66.0,64.4,62.0,99,97,88,30.24,30.06,29,14,0,0.25
2013-7-15,75.0,68.4,63.9,67.0,65.2,64.0,99,90,74,30.29,30.22,17,8,0,0.02
2013-7-16,86.3,74.3,66.8,72.0,67.3,65.0,93,79,58,30.27,30.19,9,2,0,0.02
2013-7-17,89.2,73.9,64.6,73.0,66.4,61.0,96,79,57,30.22,30.09,16,7,0,0.19
2013-7-18,78.9,71.8,64.9,70.0,65.8,61.0,88,81,72,30.15,30.04,14,5,0,0.19
2013-7-19,79.1,71.8,66.8,71.0,67.2,64.0,93,85,72,30.08,29.96,9,4,0,0.00
2013-7-20,75.8,68.3,63.8,71.0,66.2,62.0,98,93,84,29.98,29.92,12,3,0,0.70
2013-7-21,79.6,68.8,64.1,71.0,65.7,62.0,96,90,73,29.97,29.90,17,4,0,0.22
2013-7-22,77.6,68.3,63.4,69.0,65.3,61.0,97,90,74,29.97,29.80,12,4,0,0.72
2013-7-23,84.0,70.2,62.8,71.0,64.3,59.0,97,82,61,29.86,29.76,11,3,0,0.13
2013-7-24,87.7,71.2,65.2,71.0,64.4,61.0,93,80,55,29.80,29.71,20,8,0,0.13
2013-7-25,74.9,67.1,62.7,67.0,62.6,58.0,94,86,76,29.99,29.76,20,8,0,0.01
2013-7-26,71.3,66.1,62.6,67.0,63.1,59.0,98,90,78,30.07,29.98,15,6,0,0.12
2013-7-27,69.9,66.0,61.9,69.0,65.4,61.0,99,97,92,30.00,29.86,13,4,0,3.34
2013-7-28,76.1,67.2,62.0,69.0,64.0,59.0,99,90,75,29.98,29.87,12,3,0,0.12
2013-7-29,74.8,67.5,60.6,65.0,60.1,55.0,86,77,66,30.13,29.97,15,6,0,0.00
2013-7-30,74.4,67.4,62.5,66.0,60.4,53.0,93,78,67,30.18,30.10,15,5,0,0.01
2013-7-31,66.9,64.9,61.9,66.0,63.7,61.0,98,96,89,30.13,29.95,15,3,0,0.15
2013-8-1,78.9,67.7,63.0,70.0,64.8,62.0,99,91,72,29.97,29.85,17,4,0,0.47
2013-8-2,74.5,68.3,63.3,67.0,62.8,60.0,90,83,74,30.00,29.86,18,7,0,0.00
2013-8-3,78.9,72.2,66.9,69.0,65.3,62.0,92,79,67,29.99,29.92,9,3,0,0.00
2013-8-4,82.9,72.2,66.3,69.0,63.0,58.0,82,73,62,29.98,29.89,21,9,0,0.00
2013-8-5,72.5,67.3,62.1,66.0,61.9,57.0,93,83,72,30.03,29.95,12,5,0,0.00
2013-8-6,70.2,66.0,63.7,67.0,65.0,63.0,99,96,85,30.02,29.93,12,4,0,0.18
2013-8-7,67.0,65.5,64.5,67.0,65.3,64.0,100,99,98,30.04,29.96,14,4,0,1.92
2013-8-8,72.2,67.6,64.3,70.0,67.2,64.0,100,98,91,30.04,29.97,11,3,0,0.00
2013-8-9,75.6,69.6,66.3,72.0,67.9,64.0,99,94,85,30.04,29.98,12,4,0,0.29
2013-8-10,76.9,70.6,65.7,73.0,68.1,64.0,97,91,79,30.09,30.00,15,4,0,0.91
2013-8-11,80.9,70.8,65.3,71.0,66.4,63.0,94,86,71,30.10,30.01,7,4,0,0.26
2013-8-12,82.8,71.0,65.9,72.0,66.5,63.0,94,86,66,30.05,29.92,23,6,0,1.75
2013-8-13,81.3,71.1,66.2,72.0,65.7,61.0,91,83,69,29.92,29.77,16,4,0,0.01
2013-8-14,78.2,65.9,60.4,65.0,59.6,56.0,92,80,54,30.03,29.80,23,7,0,0.00
2013-8-15,61.1,57.5,53.5,56.0,53.9,52.0,96,88,78,30.12,29.99,15,6,0,0.00
2013-8-16,64.0,56.8,53.5,58.0,54.0,52.0,96,90,80,30.16,30.07,15,5,0,0.00
2013-8-17,62.2,56.2,53.2,57.0,54.7,52.0,98,94,82,30.17,30.10,18,6,0,0.14
2013-8-18,66.0,60.6,57.0,66.0,60.2,57.0,99,98,93,30.21,30.12,5,2,0,0.52
2013-8-19,66.6,62.3,59.7,66.0,61.6,59.0,100,97,93,30.19,30.08,15,3,0,1.67
2013-8-20,69.4,64.8,61.5,66.0,63.4,61.0,98,95,86,30.16,30.08,7,2,0,0.00
2013-8-21,71.8,65.9,62.7,68.0,64.1,62.0,98,93,87,30.22,30.10,11,2,0,0.15
2013-8-22,75.6,68.7,63.2,68.0,64.7,61.0,95,87,75,30.14,30.00,14,4,0,0.09
2013-8-23,87.1,72.0,65.0,71.0,64.2,60.0,88,77,52,30.02,29.90,15,5,0,0.00
2013-8-24,74.0,65.2,58.6,64.0,58.9,54.0,97,81,60,30.26,29.99,15,8,0,0.00
2013-8-25,71.8,64.1,57.7,59.0,55.5,53.0,83,74,59,30.36,30.25,15,6,0,0.00
2013-8-26,81.2,66.6,57.4,64.0,58.8,52.0,88,77,50,30.30,30.10,7,3,0,0.00
2013-8-27,87.3,71.1,62.0,69.0,62.6,57.0,88,75,50,30.10,29.97,15,5,0,0.00
2013-8-28,87.1,72.8,66.3,72.0,65.4,61.0,86,78,55,29.98,29.90,22,6,0,0.00
2013-8-29,89.3,75.3,67.0,73.0,66.6,62.0,90,75,54,29.94,29.84,17,6,0,0.00
2013-8-30,70.4,68.2,65.1,68.0,66.2,63.0,99,93,86,30.01,29.90,15,3,0,0.84
2013-8-31,77.8,68.7,63.6,72.0,65.9,61.0,98,91,74,29.95,29.86,15,3,0,0.94
2013-9-1,76.8,69.3,65.3,72.0,66.3,63.0,95,90,81,29.89,29.78,9,3,0,0.02
2013-9-2,78.7,70.9,64.9,71.0,65.8,62.0,93,84,72,29.87,29.79,13,3,0,0.02
2013-9-3,82.7,70.7,60.1,68.0,62.5,56.0,90,76,59,29.93,29.80,20,8,0,0.11
2013-9-4,76.5,69.3,63.3,66.0,62.4,58.0,85,79,68,30.06,29.91,13,5,0,0.00
2013-9-5,86.0,72.3,62.7,69.0,60.2,54.0,89,68,37,30.08,30.01,21,6,0,0.00
2013-9-6,72.7,67.3,62.3,62.0,58.7,54.0,81,74,64,30.14,30.02,19,6,0,0.00
2013-9-7,76.1,67.3,60.4,66.0,60.9,56.0,89,80,67,30.09,29.96,7,3,0,0.00
2013-9-8,83.3,71.8,63.8,69.0,63.9,60.0,89,77,54,29.97,29.89,14,4,0,0.00
2013-9-9,76.6,71.0,66.5,69.0,64.1,62.0,85,79,69,30.09,29.94,11,5,0,0.00
2013-9-10,78.3,71.1,64.1,69.0,64.6,62.0,93,80,67,30.18,30.09,11,3,0,0.00
2013-9-11,85.1,71.8,64.3,70.0,64.7,61.0,91,79,56,30.18,30.01,10,4,0,0.00
2013-9-12,86.3,71.3,65.2,70.0,64.8,60.0,93,80,57,30.03,29.78,18,4,0,0.15
2013-9-13,81.5,67.5,57.8,62.0,57.2,49.0,91,71,48,29.83,29.74,21,8,0,0.00
2013-9-14,66.6,59.2,51.4,55.0,50.9,47.0,86,74,62,30.08,29.81,31,8,0,0.00
2013-9-15,68.2,61.8,56.2,62.0,56.9,52.0,89,84,74,30.18,30.08,13,5,0,0.00
2013-9-16,80.1,68.0,60.8,65.0,60.7,57.0,93,78,58,30.12,30.01,15,4,0,0.00
2013-9-17,62.8,57.9,53.9,58.0,53.7,51.0,92,86,76,30.26,30.09,11,4,0,0.00
2013-9-18,59.6,56.6,51.2,56.0,53.1,50.0,95,88,82,30.27,30.17,15,4,0,0.00
2013-9-19,71.1,62.9,55.3,64.0,59.1,53.0,94,87,77,30.18,30.04,6,2,0,0.00
2013-9-20,75.5,67.7,61.5,67.0,62.3,58.0,94,83,72,30.04,29.87,9,3,0,0.00
2013-9-21,65.7,61.0,57.0,63.0,59.8,56.0,99,96,84,29.88,29.64,30,9,0,1.19
2013-9-22,77.4,62.5,53.3,59.0,54.2,50.0,96,76,49,29.86,29.69,20,8,0,0.27
2013-9-23,65.0,59.4,54.4,57.0,53.6,50.0,86,81,69,30.03,29.85,11,5,0,0.00
2013-9-24,65.7,59.7,55.5,59.0,55.9,52.0,93,87,75,30.05,29.90,9,2,0,0.00
2013-9-25,58.9,55.9,54.1,57.0,55.2,54.0,99,97,89,29.91,29.85,8,3,0,1.05
2013-9-26,67.6,58.4,53.4,59.0,54.8,49.0,99,88,65,30.02,29.87,11,4,0,0.01
2013-9-27,70.6,60.5,51.6,59.0,53.3,49.0,89,77,63,30.13,30.00,16,6,0,0.00
2013-9-28,63.1,57.0,51.5,55.0,52.2,49.0,94,84,74,30.22,30.12,15,6,0,0.00
2013-9-29,63.4,55.2,48.8,56.0,50.9,47.0,94,85,72,30.16,30.02,11,4,0,0.00
2013-9-30,66.2,59.2,52.6,58.0,53.9,50.0,92,82,73,30.08,29.98,6,2,0,0.00
2013-10-1,72.5,63.2,54.8,61.0,55.9,52.0,93,78,63,30.11,30.03,8,4,0,0.00
2013-10-2,81.6,66.4,58.7,62.0,58.2,55.0,89,75,47,30.11,30.03,16,5,0,0.00
2013-10-3,73.7,66.7,61.1,64.0,59.0,56.0,84,76,67,30.09,30.02,12,3,0,0.00
2013-10-4,80.2,68.1,61.7,64.0,60.3,56.0,86,76,57,30.10,30.04,16,4,0,0.00
2013-10-5,78.9,69.6,63.3,67.0,61.7,59.0,87,76,62,30.09,29.99,13,4,0,0.00
2013-10-6,72.6,66.9,61.9,65.0,61.3,58.0,89,82,74,29.99,29.82,13,5,0,0.00
2013-10-7,64.9,59.1,53.2,62.0,55.7,47.0,98,89,73,29.97,29.76,27,9,0,1.60
2013-10-8,60.9,53.5,48.2,51.0,46.9,43.0,91,79,65,30.19,29.94,27,9,0,0.00
2013-10-9,66.4,55.1,45.9,50.0,43.8,39.0,88,67,50,30.21,30.11,18,5,0,0.00
2013-10-10,72.5,60.0,50.1,54.0,49.2,42.0,81,69,49,30.11,29.96,18,7,0,0.00
2013-10-11,74.4,63.3,56.7,56.0,51.9,49.0,80,68,41,29.99,29.90,22,9,0,0.00
2013-10-12,75.4,63.9,58.8,60.0,54.7,50.0,84,73,56,30.03,29.90,18,6,0,0.00
2013-10-13,65.6,60.1,57.3,61.0,57.7,55.0,98,92,82,30.18,30.03,13,4,0,0.19
2013-10-14,61.4,57.2,55.1,59.0,56.2,54.0,99,96,88,30.20,30.13,12,5,0,0.19
2013-10-15,64.1,55.7,50.7,57.0,52.7,50.0,98,90,78,30.17,30.03,10,4,0,0.00
2013-10-16,62.2,57.7,54.1,57.0,52.5,48.0,92,83,74,30.06,29.94,10,4,0,0.00
2013-10-17,59.0,57.4,54.2,59.0,56.5,54.0,99,96,90,29.95,29.84,14,4,0,0.04
2013-10-18,61.7,54.0,47.8,54.0,50.9,45.0,100,89,74,30.00,29.89,17,7,0,0.02
2013-10-19,55.5,53.2,47.9,55.0,52.0,45.0,99,96,80,29.93,29.83,13,4,0,0.01
2013-10-20,56.3,49.4,40.2,45.0,41.9,36.0,90,76,62,30.08,29.92,22,8,0,0.00
2013-10-21,60.5,52.0,47.5,52.0,47.4,42.0,93,84,72,30.13,29.98,11,4,0,0.00
2013-10-22,63.0,54.3,51.0,53.0,47.8,45.0,88,79,64,29.99,29.84,10,4,0,0.00
2013-11-23,43.5,36.8,29.8,38.0,26.7,21.0,83,67,53,30.16,30.05,33,16,0,0.00
2013-11-24,34.7,25.9,18.1,22.0,9.7,2.0,75,53,32,30.54,30.16,34,12,0,0.00
2013-11-25,32.5,26.6,20.1,22.0,7.4,1.0,73,45,35,30.57,30.34,11,5,0,0.00
2013-11-26,45.5,37.8,27.2,45.0,36.8,23.0,100,96,81,30.33,29.62,25,14,0,1.33
2013-11-27,41.6,28.9,19.0,41.0,25.1,13.0,99,86,63,30.21,29.54,37,19,0,0.26
2013-11-28,40.5,30.6,17.7,24.0,18.2,8.0,81,61,37,30.48,30.22,18,5,0,0.00
2013-11-29,54.4,39.5,31.0,26.0,21.0,16.0,71,49,32,30.55,30.44,18,7,0,0.00
2013-11-30,42.1,33.1,25.4,24.0,21.9,20.0,80,64,49,30.60,30.36,13,4,0,0.00
2013-12-1,47.6,40.9,33.8,36.0,30.7,18.0,75,67,51,30.35,29.97,14,5,0,0.00
2013-12-2,51.0,44.4,40.8,43.0,35.8,29.0,96,72,60,29.96,29.79,15,4,0,0.00
2013-12-3,47.7,45.6,42.6,47.0,44.8,42.0,98,97,94,29.94,29.82,12,4,0,0.03
2013-12-4,54.9,51.0,47.6,55.0,50.7,47.0,99,99,98,30.05,29.92,14,3,0,0.07
2013-12-5,61.9,57.5,55.1,62.0,57.5,55.0,100,100,99,30.07,29.93,33,7,0,0.73
2013-12-6,61.6,60.5,56.1,62.0,60.5,56.0,100,100,100,29.99,29.90,27,11,0,1.29
2013-12-7,57.3,47.2,38.0,57.0,44.9,37.0,100,92,70,30.35,29.95,28,9,0,0.56
2013-12-8,37.9,32.6,30.3,36.0,32.0,30.0,99,98,94,30.38,30.27,13,4,0,0.20
2013-12-9,52.0,43.3,33.4,52.0,43.2,33.0,100,99,98,30.27,30.02,13,6,0,0.99
2013-12-10,50.1,40.1,26.1,50.0,36.7,20.0,100,88,62,30.32,29.86,25,11,0,0.14
2013-12-11,47.6,36.8,26.2,28.0,18.8,11.0,77,49,39,30.46,30.29,20,6,0,0.00
2013-12-12,43.4,32.6,25.5,21.0,15.7,7.0,76,52,35,30.44,30.27,26,10,0,0.00
2013-12-13,44.3,37.1,31.6,24.0,17.9,12.0,57,46,35,30.38,30.24,10,4,0,0.00
2013-12-14,41.4,38.9,32.8,41.0,34.2,23.0,98,85,51,30.26,29.81,25,8,0,0.97
2013-12-15,44.8,35.8,27.2,42.0,31.9,24.0,99,87,62,30.12,29.74,27,10,0,0.02
2013-12-16,55.4,42.7,32.2,33.0,27.0,24.0,75,55,36,30.20,30.07,14,6,0,0.00
2013-12-17,59.0,47.7,37.7,36.0,29.3,20.0,59,50,36,30.12,29.93,16,7,0,0.00
2013-12-18,47.2,37.3,26.2,23.0,18.3,12.0,71,48,31,30.33,30.03,19,7,0,0.00
2013-12-19,54.1,47.3,41.8,27.0,21.2,12.0,51,36,27,30.31,30.19,14,6,0,0.00
2013-12-20,52.5,47.8,44.1,49.0,38.8,26.0,93,72,48,30.23,30.12,19,7,0,0.00
2013-12-21,57.6,53.3,50.3,57.0,52.2,48.0,99,96,89,30.12,29.97,23,9,0,0.33
2013-12-22,59.3,56.2,53.7,59.0,56.3,54.0,100,100,99,30.01,29.92,25,8,0,1.53
2013-12-23,54.4,45.7,33.7,54.0,45.1,30.0,100,98,85,30.17,29.96,24,9,0,1.01
2013-12-24,36.0,28.5,20.9,30.0,21.8,12.0,91,76,60,30.44,30.14,27,13,0,0.00
2013-12-25,31.4,25.3,18.7,17.0,11.7,8.0,76,57,44,30.56,30.41,12,5,0,0.00
2013-12-26,53.3,37.3,24.5,27.0,20.4,10.0,67,52,36,30.41,30.25,19,6,0,0.00
2013-12-27,46.8,39.2,32.8,25.0,21.8,20.0,64,51,37,30.46,30.30,8,3,0,0.00
2013-12-28,47.8,43.0,34.3,34.0,24.0,17.0,95,49,29,30.39,30.08,16,5,0,0.36
2013-12-29,53.5,41.6,33.6,51.0,39.8,32.0,99,93,76,30.05,29.80,24,8,0,1.29
2013-12-30,44.3,39.6,34.4,39.0,35.3,32.0,92,84,78,30.13,29.94,21,6,0,0.00
2013-12-31,43.2,34.4,29.2,31.0,22.7,11.0,89,64,36,30.40,30.11,14,7,0,0.00
2014-1-1,40.9,36.1,34.1,30.0,25.4,18.0,84,66,52,30.39,30.14,9,4,0,0.00
2014-1-2,39.3,34.6,18.1,39.0,31.6,10.0,98,89,71,30.14,29.67,20,8,0,0.10